• In Romania
  • List of Countries
  • For 7 days
  • Water Temperature
  • Satellite Maps
  • Weather Map
  • Weather Widgets
  • user-avatar
    Login

    Hourly Weather Wroniec

    Today, 22 October, Monday

    Time Temperature Precipitation Wind Pressure Humidity
    00:00 +5°C° 0 mm 0 mps 749 mmHg 86%
    01:00 +5°C° 0 mm 0 mps 749 mmHg 87%
    02:00 +5°C° 0 mm 0 mps 748 mmHg 87%
    03:00 +4°C° 0 mm 0 mps 748 mmHg 88%
    04:00 +4°C° 0 mm 0 mps 748 mmHg 88%
    05:00 +4°C° 0 mm 0 mps 748 mmHg 87%
    06:00 +4°C° 0 mm 0 mps 748 mmHg 87%
    07:00 +4°C° 0 mm 0 mps 748 mmHg 86%
    08:00 +6°C° 0 mm 0 mps 748 mmHg 77%
    09:00 +8°C° 0 mm 0 mps 748 mmHg 69%
    10:00 +10°C° 0 mm 0 mps 748 mmHg 60%
    11:00 +12°C° 0 mm 1 mps 747 mmHg 56%
    12:00 +13°C° 0 mm 1 mps 747 mmHg 53%
    13:00 +14°C° 0 mm 1 mps 746 mmHg 49%
    14:00 +14°C° 0 mm 1 mps 746 mmHg 52%
    15:00 +13°C° 0 mm 1 mps 746 mmHg 55%
    16:00 +12°C° 0 mm 2 mps 745 mmHg 58%
    17:00 +10°C° 0 mm 2 mps 745 mmHg 62%
    18:00 +9°C° 0 mm 2 mps 746 mmHg 66%
    19:00 +8°C° 0 mm 2 mps 746 mmHg 69%
    20:00 +8°C° 0.1 mm 2 mps 746 mmHg 72%
    21:00 +8°C° 0.1 mm 3 mps 746 mmHg 74%
    22:00 +9°C° 0.1 mm 3 mps 746 mmHg 76%
    23:00 +8°C° 0.2 mm 4 mps 746 mmHg 78%

    Tomorrow, 23 October, Tuesday

    Time Temperature Precipitation Wind Pressure Humidity
    00:00 +8°C° 0.2 mm 4 mps 746 mmHg 80%
    01:00 +7°C° 0.2 mm 4 mps 746 mmHg 82%
    02:00 +7°C° 0.1 mm 4 mps 746 mmHg 84%
    03:00 +6°C° 0.1 mm 4 mps 746 mmHg 86%
    04:00 +5°C° 0.1 mm 3 mps 745 mmHg 88%
    05:00 +5°C° 0 mm 3 mps 745 mmHg 88%
    06:00 +4°C° 0 mm 4 mps 745 mmHg 87%
    07:00 +4°C° 0 mm 4 mps 745 mmHg 87%
    08:00 +5°C° 0 mm 4 mps 745 mmHg 79%
    09:00 +6°C° 0 mm 5 mps 744 mmHg 72%
    10:00 +7°C° 0 mm 6 mps 743 mmHg 64%
    11:00 +7°C° 0.2 mm 6 mps 742 mmHg 63%
    12:00 +7°C° 0.2 mm 6 mps 741 mmHg 62%
    13:00 +8°C° 0.2 mm 7 mps 740 mmHg 62%
    14:00 +6°C° 0.2 mm 7 mps 739 mmHg 64%
    15:00 +6°C° 0.2 mm 8 mps 738 mmHg 66%
    16:00 +6°C° 0.2 mm 8 mps 737 mmHg 68%
    17:00 +6°C° 0.5 mm 9 mps 736 mmHg 71%
    18:00 +6°C° 0.5 mm 9 mps 736 mmHg 74%
    19:00 +6°C° 0.5 mm 9 mps 735 mmHg 78%
    20:00 +7°C° 0.6 mm 10 mps 734 mmHg 78%
    21:00 +7°C° 0.6 mm 10 mps 733 mmHg 79%
    22:00 +8°C° 0.6 mm 10 mps 732 mmHg 79%
    23:00 +8°C° 1.1 mm 9 mps 732 mmHg 81%

    Day after tomorrow, 24 October, Wednesday

    Time Temperature Precipitation Wind Pressure Humidity
    00:00 +8°C° 1.1 mm 9 mps 731 mmHg 83%
    01:00 +9°C° 1.1 mm 8 mps 730 mmHg 85%
    02:00 +8°C° 1.4 mm 9 mps 729 mmHg 84%
    03:00 +9°C° 1.4 mm 10 mps 728 mmHg 83%
    04:00 +9°C° 1.4 mm 10 mps 728 mmHg 83%
    05:00 +8°C° 1.3 mm 10 mps 728 mmHg 77%
    06:00 +6°C° 1.3 mm 10 mps 729 mmHg 72%
    07:00 +5°C° 1.3 mm 10 mps 729 mmHg 66%
    08:00 +5°C° 0.1 mm 10 mps 730 mmHg 61%
    09:00 +4°C° 0.1 mm 11 mps 731 mmHg 57%
    10:00 +4°C° 0.1 mm 11 mps 732 mmHg 52%
    11:00 +4°C° 0.1 mm 11 mps 732 mmHg 50%
    12:00 +4°C° 0.1 mm 11 mps 732 mmHg 47%
    13:00 +6°C° 0.1 mm 11 mps 732 mmHg 45%
    14:00 +5°C° 0 mm 10 mps 733 mmHg 46%
    15:00 +5°C° 0 mm 9 mps 733 mmHg 47%
    16:00 +5°C° 0 mm 8 mps 734 mmHg 48%
    17:00 +4°C° 0 mm 8 mps 734 mmHg 50%
    18:00 +4°C° 0 mm 8 mps 735 mmHg 51%
    19:00 +2°C° 0 mm 8 mps 736 mmHg 52%
    20:00 +2°C° 0 mm 8 mps 736 mmHg 54%
    21:00 +3°C° 0 mm 7 mps 737 mmHg 56%
    22:00 +2°C° 0 mm 7 mps 737 mmHg 58%
    23:00 +2°C° 0 mm 7 mps 738 mmHg 59%

    25 October, Thursday

    Time Temperature Precipitation Wind Pressure Humidity
    00:00 +2°C° 0 mm 7 mps 738 mmHg 61%
    01:00 +2°C° 0 mm 7 mps 739 mmHg 63%
    02:00 +2°C° 0 mm 6 mps 739 mmHg 66%
    03:00 +1°C° 0 mm 6 mps 740 mmHg 69%
    04:00 +1°C° 0 mm 6 mps 740 mmHg 72%
    05:00 +1°C° 0 mm 6 mps 740 mmHg 74%
    06:00 +1°C° 0 mm 5 mps 741 mmHg 75%
    07:00 +1°C° 0 mm 5 mps 741 mmHg 77%
    08:00 +2°C° 0 mm 6 mps 741 mmHg 72%
    09:00 +3°C° 0 mm 6 mps 741 mmHg 67%
    10:00 +5°C° 0 mm 7 mps 741 mmHg 62%
    11:00 +5°C° 0 mm 7 mps 740 mmHg 62%
    12:00 +6°C° 0 mm 7 mps 740 mmHg 62%
    13:00 +6°C° 0 mm 7 mps 740 mmHg 63%
    14:00 +6°C° 0.1 mm 7 mps 739 mmHg 68%
    15:00 +7°C° 0.1 mm 6 mps 739 mmHg 73%
    16:00 +7°C° 0.1 mm 6 mps 739 mmHg 78%
    17:00 +7°C° 0 mm 6 mps 739 mmHg 78%
    18:00 +8°C° 0 mm 6 mps 738 mmHg 79%
    19:00 +8°C° 0 mm 6 mps 738 mmHg 80%
    20:00 +8°C° 0 mm 5 mps 738 mmHg 82%
    21:00 +8°C° 0 mm 5 mps 738 mmHg 84%
    22:00 +7°C° 0 mm 5 mps 738 mmHg 86%
    23:00 +7°C° 0 mm 5 mps 738 mmHg 87%

    26 October, Friday

    Time Temperature Precipitation Wind Pressure Humidity
    00:00 +7°C° 0 mm 5 mps 738 mmHg 88%
    01:00 +7°C° 0 mm 5 mps 738 mmHg 89%
    02:00 +7°C° 0 mm 4 mps 738 mmHg 90%
    03:00 +7°C° 0 mm 4 mps 738 mmHg 90%
    04:00 +7°C° 0 mm 4 mps 738 mmHg 90%
    05:00 +6°C° 0 mm 4 mps 738 mmHg 90%
    06:00 +6°C° 0 mm 4 mps 738 mmHg 91%
    07:00 +7°C° 0 mm 3 mps 738 mmHg 91%
    08:00 +7°C° 0 mm 4 mps 738 mmHg 83%
    09:00 +10°C° 0 mm 4 mps 738 mmHg 74%
    10:00 +11°C° 0 mm 4 mps 738 mmHg 66%
    11:00 +12°C° 0 mm 4 mps 737 mmHg 63%
    12:00 +13°C° 0 mm 4 mps 737 mmHg 60%
    13:00 +14°C° 0 mm 3 mps 736 mmHg 57%
    14:00 +13°C° 0 mm 3 mps 736 mmHg 61%
    15:00 +13°C° 0 mm 2 mps 736 mmHg 65%
    16:00 +13°C° 0 mm 1 mps 735 mmHg 68%
    17:00 +12°C° 0 mm 2 mps 735 mmHg 72%
    18:00 +10°C° 0 mm 2 mps 735 mmHg 76%
    19:00 +9°C° 0 mm 2 mps 735 mmHg 80%
    20:00 +9°C° 0 mm 2 mps 735 mmHg 82%
    21:00 +8°C° 0 mm 2 mps 735 mmHg 84%
    22:00 +8°C° 0 mm 2 mps 734 mmHg 86%
    23:00 +8°C° 0 mm 2 mps 734 mmHg 86%

    27 October, Saturday

    Time Temperature Precipitation Wind Pressure Humidity
    00:00 +8°C° 0 mm 2 mps 734 mmHg 87%
    01:00 +8°C° 0 mm 2 mps 734 mmHg 87%
    02:00 +8°C° 0 mm 2 mps 734 mmHg 88%
    03:00 +8°C° 0 mm 2 mps 733 mmHg 89%
    04:00 +8°C° 0 mm 2 mps 733 mmHg 90%
    05:00 +8°C° 0 mm 2 mps 733 mmHg 90%
    06:00 +8°C° 0 mm 2 mps 733 mmHg 90%
    07:00 +8°C° 0 mm 2 mps 732 mmHg 90%
    08:00 +10°C° 0 mm 2 mps 732 mmHg 83%
    09:00 +13°C° 0 mm 2 mps 732 mmHg 76%
    10:00 +14°C° 0 mm 3 mps 731 mmHg 69%
    11:00 +14°C° 0 mm 3 mps 731 mmHg 69%
    12:00 +16°C° 0 mm 3 mps 730 mmHg 70%
    13:00 +16°C° 0 mm 3 mps 730 mmHg 71%
    14:00 +16°C° 0.2 mm 3 mps 729 mmHg 74%
    15:00 +16°C° 0.2 mm 3 mps 729 mmHg 77%
    16:00 +14°C° 0.2 mm 3 mps 728 mmHg 79%
    17:00 +14°C° 0.2 mm 3 mps 728 mmHg 80%
    18:00 +14°C° 0.2 mm 3 mps 728 mmHg 81%
    19:00 +13°C° 0.2 mm 3 mps 728 mmHg 82%
    20:00 +13°C° 0 mm 3 mps 728 mmHg 83%
    21:00 +13°C° 0 mm 3 mps 727 mmHg 83%
    22:00 +13°C° 0 mm 3 mps 727 mmHg 84%
    23:00 +12°C° 0.4 mm 4 mps 728 mmHg 84%
    Show more